Meteo

Meteo


Dettagli e Storico

Webcam

Webcam in aeroporto – Aggiornata ogni minuto
Osservatorio Meteorologico Cocomaro di Cona – Ferrara

NOAA IMAGE

NOAA

Windy

METAR

Aviation Digital Data Service (ADDS)

Output produced by METARs form (1921 UTC 18 September 2020)
found at http://www.aviationweather.gov/metar/data/
 
METAR text: LIPF 181755Z /////KT CAVOK 24/16 Q1019 RMK SKC VIS MIN 9999
Conditions at: LIPF (FERRARA (AUT) , IT) observed 1755 UTC 18 September 2020
Temperature: 24.0°C (75°F)
Dewpoint: 16.0°C (61°F) [RH = 61%]
Pressure (altimeter): 30.09 inches Hg (1019.0 mb)
Winds: missing
Visibility: 6 or more miles (10+ km)
Ceiling: ceiling and visibility are OK
Clouds: unknown
Weather: no significant weather observed at this time

METAR text: LIPE 181850Z AUTO 06004KT 9999 NCD 23/13 Q1019
Conditions at: LIPE (BOLOGNA/BORGO (A, IT) observed 1850 UTC 18 September 2020
Temperature: 23.0°C (73°F)
Dewpoint: 13.0°C (55°F) [RH = 53%]
Pressure (altimeter): 30.09 inches Hg (1019.0 mb)
Winds: from the ENE (60 degrees) at 5 MPH (4 knots; 2.1 m/s)
Visibility: 6 or more miles (10+ km)
Ceiling: at least 12,000 feet AGL
Clouds: sky clear below 12,000 feet AGL
Weather: no significant weather observed at this time

METAR text: LIPX 181850Z 08004KT CAVOK 23/15 Q1020
Conditions at: LIPX (VILLAFRANCA(CV/M, IT) observed 1850 UTC 18 September 2020
Temperature: 23.0°C (73°F)
Dewpoint: 15.0°C (59°F) [RH = 61%]
Pressure (altimeter): 30.12 inches Hg (1020.0 mb)
Winds: from the E (80 degrees) at 5 MPH (4 knots; 2.1 m/s)
Visibility: 6 or more miles (10+ km)
Ceiling: ceiling and visibility are OK
Clouds: unknown
Weather: no significant weather observed at this time

Forecast for: LIPX (VILLAFRANCA(CV/M, IT)
Text: TAF LIPX 181700Z 1818/1903 06006KT 9999 SCT040
Forecast period: 1800 UTC 18 September 2020 to 0300 UTC 19 September 2020
Forecast type: FROM: standard forecast or significant change
Winds: from the ENE (60 degrees) at 7 MPH (6 knots; 3.1 m/s)
Visibility: 6 or more miles (10+ km)
Ceiling: at least 12,000 feet AGL
Clouds: scattered clouds at 4000 feet AGL
Weather: no significant weather forecast for this period

METAR text: LIPZ 181850Z 09008KT CAVOK 23/16 Q1020 NOSIG
Conditions at: LIPZ (VENEZIA/TESSERA , IT) observed 1850 UTC 18 September 2020
Temperature: 23.0°C (73°F)
Dewpoint: 16.0°C (61°F) [RH = 65%]
Pressure (altimeter): 30.12 inches Hg (1020.0 mb)
Winds: from the E (90 degrees) at 9 MPH (8 knots; 4.1 m/s)
Visibility: 6 or more miles (10+ km)
Ceiling: ceiling and visibility are OK
Clouds: unknown
Weather: no significant weather observed at this time

Forecast for: LIPZ (VENEZIA/TESSERA , IT)
Text: TAF LIPZ 181700Z 1818/1924 03010KT CAVOK
Forecast period: 1800 UTC 18 September 2020 to 0800 UTC 19 September 2020
Forecast type: FROM: standard forecast or significant change
Winds: from the NNE (30 degrees) at 12 MPH (10 knots; 5.1 m/s)
Visibility: 6 or more miles (10+ km)
Ceiling: unknown
Clouds: missing
Weather: NSW  (no significant weather)
Text: BECMG 1908/1910 12010KT
Forecast period: 0800 to 1800 UTC 19 September 2020
Forecast type: BECOMING: Conditions expected to become as follows by 1000 UTC 19 September 2020
Winds: from the ESE (120 degrees) at 12 MPH (10 knots; 5.1 m/s)
Visibility: 6 or more miles (10+ km)
Ceiling: unknown
Clouds: missing
Weather: NSW  (no significant weather)
Text: BECMG 1918/1920 02008KT
Forecast period: 1800 UTC 19 September 2020 to 0000 UTC 20 September 2020
Forecast type: BECOMING: Conditions expected to become as follows by 2000 UTC 19 September 2020
Winds: from the NNE (20 degrees) at 9 MPH (8 knots; 4.1 m/s)
Visibility: 6 or more miles (10+ km)
Ceiling: unknown
Clouds: missing
Weather: NSW  (no significant weather)